User: anonymous   Login
Location: Augustenthal
(51.7167°N, 10.2833°E)
Time: 22:21:19
(UTC+00:00)
Language:

Nadezhda 3 Rocket - Orbit

View from above orbital plane
View from above orbital plane
View from above satellite
View from above satellite

Ground track
Ground track

The orbit data is extracted from the following two-line orbital elements,

1 21153U 91019B   21212.60956766  .00000024  00000-0  89026-5 0  9991
2 21153  82.9269 162.6400 0027678 264.6062 268.8913 13.75987423525418
Epoch (UTC): 31 July 2021 14:37:46
Eccentricity: 0.0027678
inclination: 82.9269°
perigee height: 958 km
apogee height: 998 km
right ascension of ascending node: 162.6400°
argument of perigee: 264.6062°
revolutions per day: 13.75987423
mean anomaly at epoch: 268.8913°
orbit number at epoch: 52541

The dashed part of the orbit path shows where the satellite is in the earth's shadow,  

DLR